This demonstration page uses our WeatherBlox Daily Observations layout. Learn more.

Left ArrowRight Arrow

Hourly Observations for July 23, 2020

Temp ( °F °C ) Dew Point ( °F °C ) Humidity (%) Winds ( mph kmh ) Pressure ( in mb ) Visibility ( mi km ) Precip ( " mm )
1:53 am 01:53 Clear 74 23.3 71 21.7 91 91 SSE 9 15 29.97 1015 10 16 0.00 0.00
2:53 am 02:53 Mostly Clear 74 23.3 70 21.1 88 88 ESE 7 11 29.98 1015 10 16 0.00 0.00
3:53 am 03:53 Clear 74 23.3 70 21.1 88 88 ESE 7 11 29.98 1015 10 16 0.00 0.00
4:53 am 04:53 Clear 73 22.8 70 21.1 90 90 SE 8 13 29.98 1015 10 16 0.00 0.00
5:53 am 05:53 Clear 73 22.8 69 20.6 87 87 S 9 15 29.97 1015 10 16 0.00 0.00
6:53 am 06:53 Sunny 73 22.8 69 20.6 87 87 SSE 10 17 29.97 1015 10 16 0.00 0.00
7:53 am 07:53 Sunny 74 23.3 70 21.1 88 88 SSE 10 17 29.98 1015 10 16 0.00 0.00
8:53 am 08:53 Sunny 76 24.4 70 21.1 82 82 S 12 19 29.99 1016 10 16 0.00 0.00
9:53 am 09:53 Sunny 80 26.7 71 21.7 74 74 S 13 20 29.99 1016 10 16 0.00 0.00
10:53 am 10:53 Sunny 86 30 72 22.2 63 63 S 14 22 29.98 1015 10 16 0.00 0.00
11:53 am 11:53 Sunny 88 31.1 72 22.2 59 59 S 13 20 29.97 1015 10 16 0.00 0.00
12:53 pm 12:53 Sunny 89 31.7 72 22.2 57 57 S 13 20 29.97 1015 10 16 0.00 0.00
1:53 pm 13:53 Mostly Sunny 91 32.8 73 22.8 56 56 S 16 26 29.96 1015 10 16 0.00 0.00
2:53 pm 14:53 Sunny 90 32.2 72 22.2 56 56 SSE 17 28 29.95 1014 10 16 0.00 0.00
3:53 pm 15:53 Sunny 88 31.1 72 22.2 59 59 S 14 22 29.95 1014 10 16 0.00 0.00
4:53 pm 16:53 Sunny 88 31.1 72 22.2 59 59 S 13 20 29.94 1014 10 16 0.00 0.00
5:53 pm 17:53 Sunny 88 31.1 72 22.2 59 59 SSE 13 20 29.93 1014 10 16 0.00 0.00
6:53 pm 18:53 Sunny 87 30.6 71 21.7 59 59 SSE 14 22 29.93 1014 10 16 0.00 0.00
7:53 pm 19:53 Sunny 85 29.4 71 21.7 63 63 SSE 13 20 29.93 1013 10 16 0.00 0.00
8:53 pm 20:53 Sunny 82 27.8 72 22.2 72 72 SSE 9 15 29.94 1014 10 16 0.00 0.00
9:53 pm 21:53 Clear 80 26.7 72 22.2 76 76 SSE 10 17 29.96 1015 10 16 0.00 0.00
10:53 pm 22:53 Clear 79 26.1 72 22.2 79 79 SSE 10 17 29.96 1015 10 16 0.00 0.00
11:53 pm 23:53 Clear 78 25.6 71 21.7 79 79 SSE 13 20 29.96 1014 10 16 0.00 0.00

Powered by AerisWeather